STARLINK-38364, 100623

Orbit data source: Space-Track

STARLINK-38364, 100623 is a payload satellite owned by SpaceX/Seattle (US) in LEO that was launched on Sun, 06 Sep 2026 UTC launched from the Air Force Western Test Range (AFWTR). Payload-class satellites include a variety of spacecraft equipped with specific instruments for various scientific and technological missions. These include communications satellites like Starlink; space stations such as the ISS; scientific satellites like the Hubble; Earth observation satellites from companies like Planet Labs, Umbra, and HawkEye 360; GPS; miniature CubeSats for education and research; and military/defense satellites.

Not visible in the next 10 days
Identifier
100623, 2026-204J
Orbit
LEO
Country
Flag of USUS
Related business
Manufacturer
SpaceX/Seattle
Mission
Operational spacecraft
Bus & Motor
STARLINK V2MO, Unknown motor
Mass
575 kg wet, ~530 kg dry
Launch date (UTC)
2026-09-06 (5 days ago)
Launch vehicle
Unknown
Launch site
Air Force Western Test Range (AFWTR)
Object type
Payload
Rocket body
Debris
Shape & HBR
BOX + PAN, 17.7 m
Radar Cross Section
RCS unknown

Expand to show TLE details & history
Last TLE update: 21 hours ago

TLE from 21 hours ago
0 STARLINK-38364
1 A0623U 26204J   26253.56478124 -.00970336  32198-3 -15905-2 0  9998
2 A0623  69.9973 266.2336 0004615 301.6724  58.4038 16.03022013   649
Epoch: 2026-09-10T13:33Z
TLE epoch observation values (Epoch: 2026-09-10T13:33:17.099Z)
Latitude
-0°
Longitude
73.31168°
Altitude
266.985 km
Speed
7.748 km/s
True Right ascension
17h 44m 56s
True Declination
0° 00' 00"
Sunlit
Object was in daylight at epoch
Visualization orbit readout
Latitude
Unknown
Longitude
Unknown
Altitude
Unknown
Speed
Unknown
Apparent Right ascension
Unknown
Apparent Declination
Unknown
Sunlit
N/A
Visualization observer readout
Local Sidereal Time
02:29:05
Azimuth
Unknown
Elevation
Unknown
Doppler factor
Unknown
Orbital elements
Apogee altitude
266.974 km
Perigee altitude
260.844 km
Semi-major axis
6,642.046 km
Eccentricity
0.00046
Inclination
69.9973°
RAAN
266.2336°
Arg. of periapsis
301.6724°
True anomaly
58.44886°
Mean anomaly
58.4038°
Eccentric anomaly
58.42633°
Mean motion
4.0095 °/min
Orbital period
89.79 mins
BSTAR
-0.0015905
Loading maneuver chart data...
Computing Atmospheric mass density...
Loading historical data...
Loading historical data...
Loading historical data...
Loading historical data...
Loading historical data...
Loading historical data...
Loading historical data...

Documentation

Showing up to 5 results
|